COSMOS 1275 DEB

Satellite information

Favourite Embed

Satellite Type and Status

DEBRISIN ORBIT

Key statistics

Satellite COSMOS 1275 DEB at a glance.

Uptime

16105

Days in orbit

Revolutions

≈ 14.0

Per day

Orbit

LEO

Low Earth Orbit

Inclination

83.0

Latest

Satellite identification and parameters

Extended collection of information and parameters for COSMOS 1275 DEB.

Object identification

Identified? True

Debris? True

Object name: COSMOS 1275 DEB

International designator: 1981-053EH

Object number (NORAD): 12962

Object ID (CCSDS): 12962

Country: COMMONWEALTH OF INDEPENDENT STATES (CIS)

Current information (Y/N): Y

RCS size: SMALL

Orbital parameters

Period: 102.704 minutes

Inclination: 82.9611 deg

SMA: 7264.726 km

Apoapsis: 906.885 km

Periapsis: 866.297 km

RAAN: 279.1019 deg

Eccentricy: 0.0027935

Argument of periapsis: 52.9973 deg

Mean anomaly: 307.3748 deg

Mean motion: 14.02083608 rev/day

Mean motion (dot): 0.00001137 rev/day2

B* drag term: 0.00073196 1/REarth

Two-line elements (TLE)

Creation date: July 7, 2025, 5:18 a.m.

Reference frame: TEME

Reference center: EARTH

Epoch: July 6, 2025, 5:31 p.m. UTC

TLE line 0: 0 COSMOS 1275 DEB

TLE line 1: 1 12962U 81053EH 25187.73012734 .00001137 00000-0 73196-3 0 9998

TLE line 2: 2 12962 82.9611 279.1019 0027935 52.9973 307.3748 14.02083608212086

Live tracking on map

Real-time ground track for satellite COSMOS 1275 DEB.

In-orbit conjunctions

A list of the most updated potential collisions computed for object COSMOS 1275 DEB.

Target Orbit TCA Probability of collision Miss distance Type
CZ-4 DEB SSO 2025-05-07 08:00:45 0.0001062836 152.0 (m) DEBRIS
DELTA 1 DEB SSO 2024-11-12 17:43:05 0.0002373085 539.0 (m) DEBRIS

Associated space launch

Navigation satellite providing location information for the Tsiklon-B navigation system

COSMOS 1275 DEB was lifted into orbit during the mission ‘Kosmos-3M | Parus 27’, on board a Kosmos-3M space rocket.

The launch took place on June 4, 1981, 3:41 p.m. from 132/2.

For more information about the launch, click the button.

Launch to space Kosmos-3M | Parus 27
Kosmos-3M | Parus 27

Agency: N/A

Status: Launch Successful

Launch date: June 4, 1981, 3:41 p.m. UTC

Rocket: Kosmos-3M

Launch pad: 132/2

Location: Plesetsk Cosmodrome, Russian Federation

...

Latest news about this satellite

There are no fresh news available about this satellite. Check back as we update our databases every day.


Newsletter sign-up

Weekly statistics, charts and insights to help you stay on top of the space industry.